Location: Lafig�re
(44.4503°N, 4.0357°E)
Time: 16:41:09
(UTC+00:00)

TSX-5 - Pass Details

Date: 24 September 2020
Orbit: 400 x 1330 km, 68.9° (Epoch: 25 October)

Event Time Altitude Azimuth Distance (km) Brightness Sun altitude
Rises 19:02:12 0° 193° (SSW) 2,481 7.2 -15.9°
Reaches altitude 10° 19:04:08 10° 188° (S) 1,692 6.2 -16.2°
Maximum altitude 19:07:44 52° 112° (ESE) 718 4.0 -16.9°
Drops below altitude 10° 19:12:20 10° 36° (NE) 2,148 6.6 -17.6°
Sets 19:15:03 0° 32° (NNE) 3,239 7.6 -18.1°
